| time (UTC) | temp F | wind direction | speed knots | gust knots | rain 1hr in | rain 24hr in | rain mn in | humidity % | barometer mb |
| 20260507234642 | 57 | 250 | 3.5 | 5.2 | 0.00 | 0.11 | 0.11 | 38 | 1021.7 |
| 20260507234138 | 57 | 351 | 6.1 | 7.8 | 0.00 | 0.11 | 0.11 | 40 | 1022.0 |
| 20260507233635 | 57 | 206 | 3.5 | 4.3 | 0.00 | 0.11 | 0.11 | 37 | 1021.8 |
| 20260507233134 | 58 | 352 | 10.4 | 13.9 | 0.00 | 0.11 | 0.11 | 36 | 1021.8 |
| 20260507232630 | 59 | 239 | 6.1 | 7.8 | 0.00 | 0.11 | 0.11 | 36 | 1021.7 |
| 20260507232127 | 58 | 204 | 2.6 | 4.3 | 0.00 | 0.11 | 0.11 | 37 | 1022.0 |
| 20260507231623 | 58 | 356 | 5.2 | 6.1 | 0.00 | 0.11 | 0.11 | 38 | 1021.6 |
| 20260507231121 | 57 | 282 | 3.5 | 4.3 | 0.00 | 0.11 | 0.11 | 38 | 1021.8 |
| 20260507230617 | 57 | 232 | 2.6 | 4.3 | 0.00 | 0.11 | 0.11 | 37 | 1021.7 |
| 20260507230114 | 57 | 243 | 1.7 | 2.6 | 0.00 | 0.11 | 0.11 | 37 | 1022.0 |
| 20260507225609 | 56 | 223 | 0.0 | 0.0 | 0.00 | 0.11 | 0.11 | 38 | 1021.4 |
| 20260507225106 | 56 | 238 | 3.5 | 4.3 | 0.00 | 0.11 | 0.11 | 38 | 1021.8 |
| 20260507224601 | 56 | 270 | 1.7 | 1.7 | 0.00 | 0.11 | 0.11 | 41 | 1021.8 |
| 20260507224058 | 56 | 316 | 6.1 | 7.0 | 0.00 | 0.11 | 0.11 | 38 | 1021.8 |
| 20260507223554 | 56 | 354 | 2.6 | 4.3 | 0.00 | 0.11 | 0.11 | 38 | 1022.0 |
| 20260507223051 | 55 | 233 | 2.6 | 2.6 | 0.00 | 0.11 | 0.11 | 39 | 1022.0 |
| 20260507222548 | 55 | 300 | 6.1 | 7.8 | 0.00 | 0.11 | 0.11 | 38 | 1022.0 |
| 20260507222045 | 55 | 222 | 3.5 | 4.3 | 0.00 | 0.11 | 0.11 | 39 | 1022.0 |
| 20260507221541 | 54 | 309 | 4.3 | 6.1 | 0.00 | 0.11 | 0.11 | 39 | 1021.8 |
| 20260507221038 | 55 | 325 | 4.3 | 6.1 | 0.00 | 0.11 | 0.11 | 39 | 1022.3 |
| 20260507220535 | 54 | 248 | 1.7 | 1.7 | 0.00 | 0.11 | 0.11 | 41 | 1022.3 |
| 20260507220033 | 55 | 267 | 1.7 | 1.7 | 0.00 | 0.11 | 0.11 | 39 | 1022.1 |
| 20260507215528 | 55 | 254 | 2.6 | 4.3 | 0.00 | 0.11 | 0.11 | 40 | 1022.2 |
| 20260507215027 | 55 | 317 | 6.1 | 7.0 | 0.00 | 0.11 | 0.11 | 38 | 1022.6 |
| 20260507214524 | 55 | 292 | 4.3 | 5.2 | 0.00 | 0.11 | 0.11 | 40 | 1022.6 |
| 20260507214019 | 55 | 279 | 2.6 | 4.3 | 0.00 | 0.11 | 0.11 | 41 | 1022.5 |
| 20260507213516 | 55 | 281 | 4.3 | 5.2 | 0.00 | 0.11 | 0.11 | 39 | 1023.0 |
| 20260507213013 | 55 | 253 | 2.6 | 2.6 | 0.00 | 0.11 | 0.11 | 40 | 1022.5 |
| 20260507212508 | 55 | 262 | 2.6 | 4.3 | 0.00 | 0.11 | 0.11 | 39 | 1022.2 |
| 20260507212005 | 55 | 261 | 6.1 | 6.1 | 0.00 | 0.11 | 0.11 | 38 | 1022.7 |
| 20260507211502 | 55 | 239 | 3.5 | 4.3 | 0.00 | 0.11 | 0.11 | 41 | 1022.7 |
| 20260507210959 | 55 | 221 | 3.5 | 5.2 | 0.00 | 0.11 | 0.11 | 41 | 1023.0 |
| 20260507210455 | 55 | 254 | 3.5 | 4.3 | 0.00 | 0.11 | 0.11 | 39 | 1022.7 |
| 20260507205952 | 55 | 268 | 3.5 | 4.3 | 0.00 | 0.11 | 0.11 | 40 | 1023.1 |
| 20260507205444 | 55 | 222 | 1.7 | 1.7 | 0.00 | 0.11 | 0.11 | 43 | 1023.0 |
| 20260507204940 | 55 | 229 | 2.6 | 4.3 | 0.00 | 0.11 | 0.11 | 41 | 1023.3 |
| 20260507204436 | 55 | 281 | 3.5 | 4.3 | 0.00 | 0.11 | 0.11 | 43 | 1023.3 |
| 20260507203934 | 56 | 288 | 4.3 | 5.2 | 0.00 | 0.11 | 0.11 | 43 | 1023.5 |
| 20260507203432 | 54 | 225 | 0.9 | 1.7 | 0.00 | 0.11 | 0.11 | 45 | 1023.5 |
| 20260507202928 | 53 | 242 | 2.6 | 2.6 | 0.00 | 0.11 | 0.11 | 47 | 1023.2 |
| 20260507202425 | 54 | 228 | 2.6 | 2.6 | 0.00 | 0.11 | 0.11 | 49 | 1023.3 |
| 20260507201920 | 53 | 232 | 0.9 | 1.7 | 0.00 | 0.11 | 0.11 | 42 | 1023.6 |
| 20260507201415 | 53 | 256 | 2.6 | 2.6 | 0.00 | 0.11 | 0.11 | 40 | 1023.3 |
| 20260507200913 | 53 | 247 | 2.6 | 5.2 | 0.00 | 0.11 | 0.11 | 42 | 1023.6 |
| 20260507200408 | 54 | 224 | 2.6 | 2.6 | 0.00 | 0.11 | 0.11 | 43 | 1023.6 |
| 20260507195904 | 53 | 242 | 2.6 | 2.6 | 0.00 | 0.11 | 0.11 | 43 | 1023.6 |
| 20260507195402 | 54 | 335 | 3.5 | 5.2 | 0.00 | 0.11 | 0.11 | 42 | 1023.6 |
| 20260507194859 | 54 | 271 | 7.0 | 9.6 | 0.00 | 0.11 | 0.11 | 43 | 1023.6 |
| 20260507194356 | 54 | 228 | 0.9 | 1.7 | 0.00 | 0.11 | 0.11 | 42 | 1023.6 |
| 20260507193852 | 54 | 359 | 4.3 | 6.1 | 0.00 | 0.11 | 0.11 | 44 | 1023.5 |
| 20260507193349 | 54 | 234 | 0.9 | 0.9 | 0.00 | 0.11 | 0.11 | 42 | 1023.7 |
| 20260507192846 | 54 | 250 | 0.9 | 1.7 | 0.00 | 0.11 | 0.11 | 40 | 1023.7 |
| 20260507192342 | 55 | 240 | 1.7 | 1.7 | 0.00 | 0.11 | 0.11 | 48 | 1024.0 |
| 20260507191838 | 56 | 230 | 0.9 | 0.9 | 0.00 | 0.11 | 0.11 | 40 | 1023.6 |
| 20260507191334 | 54 | 262 | 2.6 | 2.6 | 0.00 | 0.11 | 0.11 | 42 | 1023.6 |
| 20260507190832 | 55 | 225 | 2.6 | 4.3 | 0.00 | 0.11 | 0.11 | 42 | 1023.7 |
| 20260507190330 | 56 | 311 | 7.8 | 9.6 | 0.00 | 0.11 | 0.11 | 43 | 1023.6 |
| 20260507185829 | 56 | 214 | 2.6 | 4.3 | 0.00 | 0.11 | 0.11 | 41 | 1023.8 |
| 20260507185325 | 54 | 231 | 1.7 | 2.6 | 0.00 | 0.11 | 0.11 | 48 | 1023.8 |
| 20260507184822 | 53 | 227 | 1.7 | 1.7 | 0.00 | 0.11 | 0.11 | 45 | 1024.0 |
| 20260507184320 | 55 | 249 | 3.5 | 4.3 | 0.00 | 0.11 | 0.11 | 49 | 1023.7 |
| 20260507183816 | 54 | 349 | 0.9 | 1.7 | 0.00 | 0.11 | 0.11 | 46 | 1024.0 |
| 20260507183314 | 54 | 295 | 3.5 | 4.3 | 0.00 | 0.11 | 0.11 | 50 | 1023.7 |
| 20260507182811 | 54 | 261 | 5.2 | 7.0 | 0.00 | 0.11 | 0.11 | 46 | 1023.8 |
| 20260507182307 | 54 | 205 | 3.5 | 5.2 | 0.00 | 0.11 | 0.11 | 47 | 1023.8 |
| 20260507181803 | 53 | 46 | 4.3 | 6.1 | 0.00 | 0.11 | 0.11 | 53 | 1024.1 |
| 20260507181259 | 53 | 114 | 4.3 | 5.2 | 0.00 | 0.11 | 0.11 | 51 | 1023.8 |
| 20260507180755 | 50 | 216 | 0.0 | 0.9 | 0.00 | 0.11 | 0.11 | 67 | 1024.1 |
| 20260507180253 | 48 | 218 | 0.0 | 0.0 | 0.00 | 0.11 | 0.11 | 71 | 1023.7 |
| 20260507175748 | 46 | 223 | 0.0 | 0.0 | 0.00 | 0.11 | 0.11 | 76 | 1024.0 |
| 20260507175246 | 46 | 216 | 0.0 | 0.0 | 0.00 | 0.11 | 0.11 | 80 | 1024.0 |
| 20260507174743 | 45 | 271 | 0.0 | 0.9 | 0.00 | 0.11 | 0.11 | 77 | 1024.2 |
| 20260507174241 | 45 | 196 | 1.7 | 2.6 | 0.00 | 0.11 | 0.11 | 75 | 1024.4 |
| 20260507173738 | 45 | 198 | 1.7 | 1.7 | 0.00 | 0.11 | 0.11 | 77 | 1024.4 |
| 20260507173235 | 44 | 224 | 0.0 | 0.0 | 0.00 | 0.11 | 0.11 | 75 | 1024.7 |
| 20260507172731 | 43 | 228 | 0.0 | 0.9 | 0.00 | 0.11 | 0.11 | 75 | 1024.5 |
| 20260507172229 | 43 | 233 | 0.0 | 0.9 | 0.00 | 0.11 | 0.11 | 77 | 1024.4 |
| 20260507171728 | 43 | 216 | 0.9 | 0.9 | 0.00 | 0.11 | 0.11 | 78 | 1024.4 |
| 20260507171226 | 42 | 209 | 1.7 | 1.7 | 0.00 | 0.11 | 0.11 | 78 | 1024.5 |
| 20260507170723 | 42 | 219 | 0.0 | 0.9 | 0.00 | 0.11 | 0.11 | 80 | 1024.4 |
| 20260507170220 | 41 | 192 | 0.9 | 0.9 | 0.00 | 0.11 | 0.11 | 82 | 1024.5 |
| 20260507165715 | 41 | 186 | 0.0 | 0.9 | 0.00 | 0.11 | 0.11 | 83 | 1024.7 |
| 20260507165212 | 41 | 189 | 1.7 | 1.7 | 0.00 | 0.11 | 0.11 | 85 | 1024.9 |
| 20260507164708 | 42 | 252 | 2.6 | 2.6 | 0.00 | 0.11 | 0.11 | 84 | 1024.9 |
| 20260507164206 | 42 | 229 | 0.0 | 0.0 | 0.00 | 0.11 | 0.11 | 84 | 1024.7 |
| 20260507163702 | 42 | 225 | 0.9 | 0.9 | 0.00 | 0.11 | 0.11 | 80 | 1024.5 |
| 20260507163200 | 41 | 218 | 0.0 | 0.9 | 0.00 | 0.11 | 0.11 | 83 | 1024.9 |
| 20260507162655 | 42 | 206 | 0.9 | 0.9 | 0.00 | 0.11 | 0.11 | 80 | 1024.9 |
| 20260507162152 | 41 | 192 | 1.7 | 1.7 | 0.00 | 0.11 | 0.11 | 83 | 1025.0 |
| 20260507161648 | 42 | 240 | 0.9 | 1.7 | 0.00 | 0.11 | 0.11 | 80 | 1024.6 |
| 20260507161145 | 42 | 202 | 2.6 | 2.6 | 0.00 | 0.11 | 0.11 | 73 | 1024.7 |
| 20260507160641 | 41 | 139 | 4.3 | 4.3 | 0.00 | 0.11 | 0.11 | 83 | 1024.9 |
| 20260507160138 | 42 | 167 | 1.7 | 1.7 | 0.00 | 0.11 | 0.11 | 81 | 1024.9 |
| 20260507155634 | 42 | 227 | 0.0 | 0.0 | 0.07 | 0.11 | 0.11 | 81 | 1025.1 |
| 20260507155130 | 41 | 266 | 0.9 | 1.7 | 0.07 | 0.11 | 0.11 | 83 | 1025.1 |
| 20260507154627 | 43 | 152 | 2.6 | 4.3 | 0.00 | 0.10 | 0.10 | 84 | 1025.2 |
| 20260507154125 | 43 | 183 | 2.6 | 4.3 | 0.00 | 0.10 | 0.10 | 72 | 1025.0 |
| 20260507153621 | 44 | 203 | 0.9 | 0.9 | 0.00 | 0.10 | 0.10 | 77 | 1025.1 |
| 20260507153117 | 44 | 129 | 0.9 | 1.7 | 0.05 | 0.10 | 0.10 | 80 | 1025.2 |
| 20260507152614 | 43 | 217 | 0.9 | 0.9 | 0.05 | 0.10 | 0.10 | 83 | 1024.9 |
| 20260507152110 | 46 | 237 | 3.5 | 4.3 | 0.00 | 0.09 | 0.09 | 79 | 1025.1 |
| 20260507151606 | 46 | 208 | 1.7 | 1.7 | 0.07 | 0.09 | 0.09 | 74 | 1024.7 |
| 20260507151103 | 46 | 199 | 0.9 | 0.9 | 0.12 | 0.09 | 0.09 | 65 | 1024.7 |
| 20260507150600 | 48 | 284 | 2.6 | 2.6 | 0.12 | 0.08 | 0.08 | 60 | 1024.9 |
| 20260507150057 | 49 | 194 | 0.9 | 0.9 | 0.12 | 0.07 | 0.07 | 60 | 1025.1 |
| 20260507145552 | 49 | 111 | 1.7 | 1.7 | 0.17 | 0.06 | 0.06 | 63 | 1025.0 |
| 20260507145050 | 48 | 262 | 2.6 | 2.6 | 0.19 | 0.05 | 0.05 | 68 | 1025.0 |
| 20260507144546 | 47 | 204 | 0.9 | 0.9 | 0.12 | 0.03 | 0.03 | 65 | 1025.1 |
| 20260507144044 | 47 | 171 | 2.6 | 2.6 | 0.05 | 0.02 | 0.02 | 73 | 1025.1 |
| 20260507143541 | 47 | 164 | 0.9 | 0.9 | 0.07 | 0.01 | 0.01 | 69 | 1024.7 |
| 20260507143039 | 47 | 226 | 1.7 | 1.7 | 0.07 | 0.01 | 0.01 | 69 | 1025.0 |
| 20260507142533 | 43 | 202 | 0.0 | 0.0 | 0.00 | 0.00 | 0.00 | 67 | 1024.5 |
| 20260507142031 | 40 | 215 | 0.0 | 0.0 | 0.00 | 0.00 | 0.00 | 82 | 1025.0 |
| 20260507141526 | 42 | 231 | 0.0 | 0.9 | 0.00 | 0.00 | 0.00 | 77 | 1024.6 |
| 20260507141023 | 40 | 237 | 0.0 | 0.0 | 0.00 | 0.00 | 0.00 | 77 | 1025.0 |
| 20260507140520 | 39 | 223 | 1.7 | 1.7 | 0.00 | 0.00 | 0.00 | 81 | 1024.9 |
| 20260507140012 | 40 | 230 | 1.7 | 1.7 | 0.00 | 0.00 | 0.00 | 77 | 1024.7 |
| 20260507135508 | 39 | 230 | 0.9 | 0.9 | 0.00 | 0.00 | 0.00 | 74 | 1025.0 |
| 20260507135006 | 36 | 157 | 1.7 | 1.7 | 0.00 | 0.00 | 0.00 | 82 | 1025.1 |
| 20260507134502 | 35 | 107 | 6.1 | 7.8 | 0.00 | 0.00 | 0.00 | 85 | 1025.2 |
| 20260507133958 | 34 | 139 | 3.5 | 4.3 | 0.00 | 0.00 | 0.00 | 82 | 1024.6 |
| 20260507133454 | 34 | 306 | 1.7 | 2.6 | 0.00 | 0.00 | 0.00 | 85 | 1024.7 |
| 20260507132953 | 33 | 162 | 2.6 | 2.6 | 0.00 | 0.00 | 0.00 | 87 | 1024.9 |
| 20260507132449 | 33 | 252 | 1.7 | 1.7 | 0.00 | 0.00 | 0.00 | 85 | 1024.7 |
| 20260507131945 | 31 | 210 | 0.0 | 0.9 | 0.00 | 0.00 | 0.00 | 87 | 1024.9 |
| 20260507131442 | 31 | 221 | 0.9 | 0.9 | 0.00 | 0.00 | 0.00 | 88 | 1024.6 |
| 20260507130939 | 30 | 211 | 0.0 | 0.0 | 0.00 | 0.00 | 0.00 | 89 | 1025.0 |
| 20260507130436 | 31 | 237 | 2.6 | 2.6 | 0.00 | 0.00 | 0.00 | 90 | 1025.0 |
| 20260507125935 | 29 | 137 | 1.7 | 1.7 | 0.00 | 0.00 | 0.00 | 90 | 1024.7 |
| 20260507125433 | 28 | 224 | 0.0 | 0.0 | 0.00 | 0.00 | 0.00 | 92 | 1025.0 |
| 20260507124930 | 27 | 123 | 1.7 | 1.7 | 0.00 | 0.00 | 0.00 | 94 | 1025.0 |
| 20260507124426 | 27 | 241 | 0.0 | 0.9 | 0.00 | 0.00 | 0.00 | 93 | 1024.9 |
| 20260507123924 | 27 | 235 | 0.0 | 0.0 | 0.00 | 0.00 | 0.00 | 93 | 1025.4 |
| 20260507123421 | 27 | 199 | 0.9 | 0.9 | 0.00 | 0.00 | 0.00 | 94 | 1024.9 |
| 20260507122918 | 27 | 203 | 0.9 | 0.9 | 0.00 | 0.00 | 0.00 | 95 | 1025.0 |
| 20260507122413 | 26 | 201 | 0.0 | 0.0 | 0.00 | 0.00 | 0.00 | 93 | 1025.0 |
| 20260507121909 | 27 | 107 | 1.7 | 1.7 | 0.00 | 0.00 | 0.00 | 93 | 1024.9 |
| 20260507121405 | 27 | 229 | 0.9 | 0.9 | 0.00 | 0.00 | 0.00 | 92 | 1024.7 |
| 20260507120901 | 27 | 206 | 0.0 | 0.9 | 0.00 | 0.00 | 0.00 | 91 | 1024.7 |
| 20260507120358 | 26 | 222 | 0.9 | 0.9 | 0.00 | 0.00 | 0.00 | 93 | 1024.7 |
| 20260507115855 | 26 | 212 | 0.0 | 0.9 | 0.00 | 0.00 | 0.00 | 92 | 1024.7 |
| 20260507115351 | 26 | 139 | 0.9 | 1.7 | 0.00 | 0.00 | 0.00 | 92 | 1024.5 |
| 20260507114846 | 26 | 239 | 0.0 | 0.9 | 0.00 | 0.00 | 0.00 | 92 | 1024.5 |
| 20260507114343 | 26 | 89 | 2.6 | 2.6 | 0.00 | 0.00 | 0.00 | 92 | 1024.5 |
| 20260507113841 | 25 | 190 | 0.9 | 1.7 | 0.00 | 0.00 | 0.00 | 93 | 1024.7 |
| 20260507113337 | 25 | 250 | 0.0 | 0.9 | 0.00 | 0.00 | 0.00 | 93 | 1024.9 |
| 20260507112835 | 25 | 222 | 0.0 | 0.0 | 0.00 | 0.00 | 0.00 | 92 | 1024.7 |
| 20260507112331 | 25 | 148 | 0.0 | 0.9 | 0.00 | 0.00 | 0.00 | 91 | 1024.6 |
| 20260507111829 | 26 | 195 | 0.9 | 0.9 | 0.00 | 0.00 | 0.00 | 91 | 1024.7 |
| 20260507111326 | 26 | 210 | 2.6 | 2.6 | 0.00 | 0.00 | 0.00 | 90 | 1024.4 |
| 20260507110822 | 27 | 226 | 0.0 | 0.9 | 0.00 | 0.00 | 0.00 | 88 | 1024.6 |
| 20260507110319 | 27 | 224 | 0.0 | 0.0 | 0.00 | 0.00 | 0.00 | 87 | 1024.7 |
| 20260507105816 | 30 | 237 | 1.7 | 1.7 | 0.00 | 0.00 | 0.00 | 82 | 1024.5 |
| 20260507105312 | 29 | 238 | 1.7 | 1.7 | 0.00 | 0.00 | 0.00 | 81 | 1024.5 |
| 20260507104809 | 28 | 282 | 3.5 | 4.3 | 0.00 | 0.00 | 0.00 | 85 | 1024.7 |
| 20260507104305 | 29 | 266 | 1.7 | 2.6 | 0.00 | 0.00 | 0.00 | 84 | 1024.9 |
| 20260507103802 | 25 | 244 | 2.6 | 4.3 | 0.00 | 0.00 | 0.00 | 91 | 1024.7 |
| 20260507103258 | 26 | 219 | 1.7 | 2.6 | 0.00 | 0.00 | 0.00 | 91 | 1024.7 |
| 20260507102755 | 25 | 226 | 0.0 | 0.0 | 0.00 | 0.00 | 0.00 | 92 | 1024.9 |
| 20260507102252 | 26 | 147 | 1.7 | 2.6 | 0.00 | 0.00 | 0.00 | 92 | 1024.5 |
| 20260507101748 | 26 | 174 | 1.7 | 1.7 | 0.00 | 0.00 | 0.00 | 93 | 1024.7 |
| 20260507101243 | 26 | 180 | 1.7 | 1.7 | 0.00 | 0.00 | 0.00 | 92 | 1024.9 |
| 20260507100740 | 26 | 222 | 0.0 | 0.0 | 0.00 | 0.00 | 0.00 | 93 | 1024.6 |
| 20260507100238 | 26 | 230 | 0.0 | 0.0 | 0.00 | 0.00 | 0.00 | 92 | 1024.7 |
| 20260507095736 | 25 | 135 | 2.6 | 2.6 | 0.00 | 0.00 | 0.00 | 93 | 1024.6 |
| 20260507095232 | 25 | 206 | 0.0 | 0.0 | 0.00 | 0.00 | 0.00 | 94 | 1024.6 |
| 20260507094729 | 24 | 142 | 2.6 | 4.3 | 0.00 | 0.00 | 0.00 | 94 | 1024.7 |
| 20260507094226 | 24 | 171 | 1.7 | 1.7 | 0.00 | 0.00 | 0.00 | 95 | 1024.7 |
| 20260507093723 | 24 | 217 | 0.0 | 0.0 | 0.00 | 0.00 | 0.00 | 95 | 1025.0 |
| 20260507093222 | 24 | 219 | 0.0 | 0.0 | 0.00 | 0.00 | 0.00 | 94 | 1024.9 |
| 20260507092719 | 25 | 178 | 0.9 | 0.9 | 0.00 | 0.00 | 0.00 | 93 | 1024.9 |
| 20260507092215 | 25 | 182 | 0.9 | 1.7 | 0.00 | 0.00 | 0.00 | 93 | 1025.2 |
| 20260507091711 | 25 | 219 | 0.0 | 0.9 | 0.00 | 0.00 | 0.00 | 93 | 1025.0 |
| 20260507091208 | 25 | 224 | 0.0 | 0.0 | 0.00 | 0.00 | 0.00 | 93 | 1025.1 |
| 20260507090703 | 25 | 235 | 0.0 | 0.0 | 0.00 | 0.00 | 0.00 | 93 | 1025.0 |
| 20260507090200 | 24 | 149 | 3.5 | 4.3 | 0.00 | 0.00 | 0.00 | 94 | 1024.9 |
| 20260507085657 | 24 | 169 | 2.6 | 2.6 | 0.00 | 0.00 | 0.00 | 94 | 1024.7 |
| 20260507085154 | 24 | 173 | 0.0 | 0.9 | 0.00 | 0.00 | 0.00 | 94 | 1024.7 |
| 20260507084651 | 24 | 206 | 0.9 | 0.9 | 0.00 | 0.00 | 0.00 | 94 | 1024.9 |
| 20260507084147 | 24 | 145 | 1.7 | 1.7 | 0.00 | 0.00 | 0.00 | 93 | 1024.9 |
| 20260507083644 | 24 | 208 | 0.9 | 0.9 | 0.00 | 0.00 | 0.00 | 93 | 1025.0 |
| 20260507083141 | 24 | 204 | 0.9 | 0.9 | 0.00 | 0.00 | 0.00 | 94 | 1025.0 |
| 20260507082637 | 24 | 129 | 1.7 | 2.6 | 0.00 | 0.00 | 0.00 | 94 | 1024.9 |
| 20260507082134 | 24 | 220 | 1.7 | 1.7 | 0.00 | 0.00 | 0.00 | 94 | 1025.2 |
| 20260507081631 | 24 | 177 | 1.7 | 1.7 | 0.00 | 0.00 | 0.00 | 94 | 1025.4 |
| 20260507081127 | 24 | 236 | 1.7 | 1.7 | 0.00 | 0.00 | 0.00 | 94 | 1025.1 |
| 20260507080623 | 24 | 228 | 0.0 | 0.0 | 0.00 | 0.00 | 0.00 | 94 | 1025.5 |
| 20260507080120 | 24 | 133 | 3.5 | 4.3 | 0.00 | 0.00 | 0.00 | 94 | 1025.1 |
| 20260507075620 | 24 | 145 | 2.6 | 2.6 | 0.00 | 0.00 | 0.00 | 94 | 1025.4 |
| 20260507075116 | 24 | 226 | 0.0 | 0.0 | 0.00 | 0.00 | 0.00 | 93 | 1025.5 |
| 20260507074613 | 24 | 240 | 0.9 | 1.7 | 0.00 | 0.00 | 0.00 | 93 | 1025.0 |
| 20260507074112 | 24 | 238 | 1.7 | 1.7 | 0.00 | 0.00 | 0.00 | 93 | 1025.4 |
| 20260507073607 | 24 | 295 | 0.0 | 0.9 | 0.00 | 0.00 | 0.00 | 92 | 1025.2 |
| 20260507073104 | 25 | 204 | 0.9 | 0.9 | 0.00 | 0.00 | 0.00 | 92 | 1025.5 |
| 20260507072602 | 25 | 222 | 0.9 | 0.9 | 0.00 | 0.00 | 0.00 | 91 | 1025.5 |
| 20260507072059 | 26 | 173 | 2.6 | 2.6 | 0.00 | 0.00 | 0.00 | 90 | 1025.2 |
| 20260507071556 | 26 | 225 | 0.0 | 0.9 | 0.00 | 0.00 | 0.00 | 90 | 1025.5 |
| 20260507071052 | 26 | 230 | 0.9 | 0.9 | 0.00 | 0.00 | 0.00 | 89 | 1025.4 |
| 20260507070549 | 26 | 119 | 0.9 | 1.7 | 0.00 | 0.00 | 0.00 | 89 | 1025.6 |
| 20260507070046 | 27 | 225 | 0.0 | 0.0 | 0.00 | 0.00 | 0.00 | 86 | 1025.4 |
| 20260507065543 | 27 | 219 | 1.7 | 1.7 | 0.00 | 0.00 | 0.00 | 84 | 1025.4 |
| 20260507065040 | 27 | 204 | 1.7 | 2.6 | 0.00 | 0.00 | 0.00 | 86 | 1025.2 |
| 20260507064538 | 28 | 238 | 1.7 | 1.7 | 0.00 | 0.00 | 0.00 | 84 | 1025.2 |
| 20260507064036 | 29 | 195 | 1.7 | 1.7 | 0.00 | 0.00 | 0.00 | 82 | 1025.1 |
| 20260507063533 | 31 | 147 | 3.5 | 4.3 | 0.00 | 0.00 | 0.00 | 74 | 1024.9 |
| 20260507063030 | 32 | 137 | 1.7 | 2.6 | 0.00 | 0.00 | 0.00 | 69 | 1025.0 |
| 20260507062527 | 34 | 168 | 1.7 | 2.6 | 0.00 | 0.00 | 0.00 | 60 | 1024.7 |
| 20260507062025 | 31 | 220 | 5.2 | 7.8 | 0.00 | 0.00 | 0.00 | 59 | 1024.6 |
| 20260507061522 | 33 | 242 | 0.9 | 0.9 | 0.00 | 0.00 | 0.00 | 64 | 1024.9 |
| 20260507061020 | 34 | 359 | 0.0 | 0.9 | 0.00 | 0.00 | 0.00 | 61 | 1024.6 |
| 20260507060518 | 35 | 237 | 4.3 | 6.1 | 0.00 | 0.00 | 0.00 | 57 | 1024.5 |
| 20260507060014 | 34 | 260 | 7.0 | 8.7 | 0.00 | 0.23 | 0.23 | 56 | 1024.6 |
| 20260507055509 | 35 | 255 | 6.1 | 7.0 | 0.00 | 0.23 | 0.23 | 52 | 1024.2 |
| 20260507055006 | 35 | 238 | 4.3 | 5.2 | 0.00 | 0.23 | 0.23 | 58 | 1024.6 |
| 20260507054501 | 35 | 305 | 6.1 | 8.7 | 0.00 | 0.23 | 0.23 | 59 | 1024.4 |
| 20260507053959 | 33 | 253 | 5.2 | 6.1 | 0.00 | 0.23 | 0.23 | 67 | 1024.5 |
| 20260507053457 | 35 | 269 | 4.3 | 6.1 | 0.00 | 0.23 | 0.23 | 56 | 1024.6 |
| 20260507052955 | 33 | 233 | 6.1 | 8.7 | 0.00 | 0.23 | 0.23 | 59 | 1024.9 |
| 20260507052452 | 34 | 241 | 4.3 | 5.2 | 0.00 | 0.23 | 0.23 | 65 | 1024.7 |
| 20260507051949 | 33 | 254 | 4.3 | 5.2 | 0.00 | 0.23 | 0.23 | 60 | 1024.7 |
| 20260507051447 | 33 | 250 | 3.5 | 5.2 | 0.00 | 0.23 | 0.23 | 61 | 1024.7 |
| 20260507050943 | 32 | 263 | 3.5 | 4.3 | 0.00 | 0.23 | 0.23 | 70 | 1024.7 |
| 20260507050440 | 33 | 318 | 4.3 | 5.2 | 0.00 | 0.23 | 0.23 | 66 | 1024.7 |
| 20260507045937 | 32 | 298 | 4.3 | 5.2 | 0.00 | 0.23 | 0.23 | 71 | 1024.6 |
| 20260507045433 | 31 | 228 | 4.3 | 6.1 | 0.00 | 0.23 | 0.23 | 69 | 1024.6 |
| 20260507044930 | 31 | 261 | 5.2 | 6.1 | 0.00 | 0.23 | 0.23 | 68 | 1024.6 |
| 20260507044427 | 32 | 236 | 2.6 | 2.6 | 0.00 | 0.23 | 0.23 | 70 | 1024.9 |
| 20260507043923 | 33 | 249 | 3.5 | 4.3 | 0.00 | 0.23 | 0.23 | 69 | 1024.5 |
| 20260507043419 | 31 | 247 | 3.5 | 5.2 | 0.00 | 0.23 | 0.23 | 77 | 1024.4 |
| 20260507042916 | 31 | 253 | 4.3 | 4.3 | 0.00 | 0.23 | 0.23 | 78 | 1024.1 |
| 20260507042413 | 31 | 247 | 2.6 | 4.3 | 0.00 | 0.23 | 0.23 | 77 | 1024.5 |
| 20260507041908 | 28 | 239 | 4.3 | 6.1 | 0.00 | 0.23 | 0.23 | 91 | 1024.2 |
| 20260507041405 | 28 | 126 | 0.0 | 1.7 | 0.00 | 0.23 | 0.23 | 91 | 1024.0 |
| 20260507040903 | 29 | 230 | 0.9 | 1.7 | 0.00 | 0.23 | 0.23 | 91 | 1024.2 |
| 20260507040358 | 28 | 182 | 1.7 | 1.7 | 0.00 | 0.23 | 0.23 | 93 | 1024.1 |
| 20260507035854 | 28 | 217 | 3.5 | 4.3 | 0.00 | 0.23 | 0.23 | 95 | 1024.0 |
| 20260507035351 | 28 | 175 | 1.7 | 1.7 | 0.00 | 0.23 | 0.23 | 94 | 1024.1 |
| 20260507034848 | 29 | 160 | 1.7 | 1.7 | 0.00 | 0.23 | 0.23 | 92 | 1024.0 |
| 20260507034345 | 31 | 233 | 0.0 | 0.0 | 0.00 | 0.23 | 0.23 | 85 | 1024.1 |
| 20260507033843 | 31 | 235 | 1.7 | 1.7 | 0.00 | 0.23 | 0.23 | 82 | 1024.1 |
| 20260507033340 | 29 | 13 | 4.3 | 7.0 | 0.00 | 0.23 | 0.23 | 91 | 1023.8 |
| 20260507032837 | 28 | 219 | 0.0 | 0.9 | 0.00 | 0.23 | 0.23 | 99 | 1024.0 |
| 20260507032333 | 29 | 235 | 0.0 | 0.0 | 0.00 | 0.23 | 0.23 | 98 | 1024.1 |
| 20260507031830 | 29 | 199 | 0.9 | 0.9 | 0.00 | 0.23 | 0.23 | 98 | 1024.0 |
| 20260507031327 | 29 | 217 | 0.0 | 0.0 | 0.00 | 0.23 | 0.23 | 97 | 1023.6 |
| 20260507030823 | 30 | 193 | 0.0 | 0.9 | 0.00 | 0.23 | 0.23 | 98 | 1023.7 |
| 20260507030321 | 30 | 235 | 0.9 | 0.9 | 0.00 | 0.23 | 0.23 | 98 | 1023.6 |
| 20260507025817 | 30 | 175 | 2.6 | 2.6 | 0.00 | 0.23 | 0.23 | 99 | 1023.6 |
| 20260507025315 | 30 | 221 | 1.7 | 1.7 | 0.00 | 0.23 | 0.23 | 99 | 1023.7 |
| 20260507024813 | 30 | 220 | 0.0 | 0.9 | 0.00 | 0.23 | 0.23 | 99 | 1023.8 |
| 20260507024310 | 30 | 222 | 0.0 | 0.0 | 0.00 | 0.23 | 0.23 | 99 | 1023.2 |
| 20260507023805 | 30 | 253 | 0.0 | 0.0 | 0.00 | 0.23 | 0.23 | 99 | 1023.5 |
| 20260507023302 | 30 | 196 | 0.0 | 0.0 | 0.00 | 0.23 | 0.23 | 99 | 1023.5 |
| 20260507022800 | 30 | 212 | 0.0 | 0.0 | 0.00 | 0.23 | 0.23 | 99 | 1023.5 |
| 20260507022256 | 31 | 229 | 0.9 | 1.7 | 0.00 | 0.23 | 0.23 | 99 | 1023.1 |
| 20260507021752 | 31 | 137 | 2.6 | 4.3 | 0.00 | 0.23 | 0.23 | 99 | 1023.1 |
| 20260507021248 | 31 | 222 | 0.0 | 0.9 | 0.00 | 0.23 | 0.23 | 99 | 1023.2 |
| 20260507020746 | 31 | 179 | 2.6 | 2.6 | 0.00 | 0.23 | 0.23 | 99 | 1023.3 |
| 20260507020242 | 31 | 230 | 1.7 | 1.7 | 0.00 | 0.23 | 0.23 | 99 | 1023.2 |
| 20260507015740 | 32 | 226 | 0.0 | 0.0 | 0.00 | 0.23 | 0.23 | 99 | 1023.1 |
| 20260507015237 | 32 | 201 | 0.0 | 0.9 | 0.00 | 0.23 | 0.23 | 99 | 1022.8 |
| 20260507014734 | 32 | 232 | 0.0 | 0.0 | 0.00 | 0.23 | 0.23 | 99 | 1023.1 |
| 20260507014230 | 32 | 191 | 0.9 | 0.9 | 0.00 | 0.23 | 0.23 | 99 | 1023.5 |
| 20260507013727 | 32 | 227 | 1.7 | 1.7 | 0.00 | 0.23 | 0.23 | 99 | 1023.1 |
| 20260507013224 | 32 | 222 | 0.0 | 0.0 | 0.00 | 0.23 | 0.23 | 99 | 1023.2 |
| 20260507012721 | 33 | 234 | 0.0 | 0.9 | 0.00 | 0.23 | 0.23 | 99 | 1023.2 |
| 20260507012217 | 33 | 199 | 0.0 | 0.9 | 0.00 | 0.23 | 0.23 | 98 | 1023.0 |
| 20260507011715 | 33 | 230 | 0.0 | 0.0 | 0.00 | 0.23 | 0.23 | 98 | 1023.0 |
| 20260507011211 | 35 | 255 | 0.9 | 0.9 | 0.07 | 0.23 | 0.23 | 97 | 1023.2 |
| 20260507010710 | 35 | 254 | 0.9 | 0.9 | 0.07 | 0.23 | 0.23 | 97 | 1023.0 |
| 20260507010207 | 36 | 242 | 0.0 | 0.0 | 0.07 | 0.23 | 0.23 | 97 | 1023.1 |
| 20260507005705 | 36 | 238 | 0.0 | 0.0 | 0.00 | 0.22 | 0.22 | 97 | 1023.0 |
| 20260507005201 | 36 | 242 | 0.0 | 0.9 | 0.05 | 0.22 | 0.22 | 97 | 1023.0 |
| 20260507004657 | 35 | 234 | 0.0 | 0.0 | 0.05 | 0.22 | 0.22 | 97 | 1023.1 |
| 20260507004155 | 36 | 245 | 2.6 | 2.6 | 0.07 | 0.21 | 0.21 | 97 | 1023.0 |
| 20260507003651 | 35 | 221 | 0.0 | 0.9 | 0.07 | 0.21 | 0.21 | 97 | 1022.8 |
| 20260507003151 | 35 | 243 | 0.9 | 0.9 | 0.05 | 0.20 | 0.20 | 96 | 1022.8 |
| 20260507002648 | 35 | 238 | 0.0 | 0.9 | 0.05 | 0.20 | 0.20 | 98 | 1022.8 |
| 20260507002144 | 34 | 314 | 1.7 | 1.7 | 0.07 | 0.19 | 0.19 | 96 | 1022.6 |
| 20260507001641 | 35 | 245 | 2.6 | 2.6 | 0.07 | 0.19 | 0.19 | 96 | 1022.8 |
| 20260507001138 | 35 | 323 | 2.6 | 2.6 | 0.05 | 0.18 | 0.18 | 95 | 1023.2 |
| 20260507000634 | 36 | 317 | 2.6 | 4.3 | 0.12 | 0.18 | 0.18 | 93 | 1022.8 |
| 20260507000130 | 37 | 276 | 2.6 | 2.6 | 0.12 | 0.17 | 0.17 | 90 | 1022.7 |
| 20260506235628 | 36 | 243 | 0.0 | 0.0 | 0.12 | 0.16 | 0.16 | 91 | 1023.1 |
| 20260506235128 | 36 | 270 | 0.0 | 0.0 | 0.19 | 0.15 | 0.15 | 91 | 1022.7 |